This demonstration page uses our WeatherBlox Daily Observations layout. Learn more.

Left ArrowRight Arrow

40.92501, -98.34201

Hourly Observations for July 20, 2021

Temp ( °F °C ) Dew Point ( °F °C ) Humidity (%) Winds ( mph kmh ) Pressure ( in mb ) Visibility ( mi km ) Precip ( " mm )
12:53 am 00:53 Clear 65 18.3 60 15.6 84 84 Calm 30.19 1022 7 11 0.00 0.00
2:53 am 02:53 Clear with Mist and Fog 64 17.8 60 15.6 87 87 Calm 30.18 1022 4 6 0.00 0.00
3:53 am 03:53 Clear with Mist and Fog 61 16.1 58 14.4 90 90 Calm 30.19 1023 5 8 0.00 0.00
4:53 am 04:53 Clear with Mist and Fog 61 16.1 57 13.9 87 87 W 3 6 30.19 1022 4 6 0.00 0.00
5:53 am 05:53 Clear with Mist and Fog 59 15 57 13.9 93 93 Calm 30.19 1023 4 6 0.00 0.00
6:18 am 06:18 Clear with Mist and Fog 61 16.1 58 14.4 90 90 Calm 30.19 1022 2 3 0.00 0.00
6:25 am 06:25 Sunny with Mist and Fog 61 16.1 58 14.4 90 90 WNW 3 6 30.19 1022 2 3 0.00 0.00
6:53 am 06:53 Sunny with Mist and Fog 61 16.1 58 14.4 90 90 Calm 30.20 1023 2 3 0.00 0.00
7:30 am 07:30 Hazy 64 17.8 59 15 84 84 Calm 30.18 1022 2 3 0.00 0.00
7:53 am 07:53 Hazy 66 18.9 61 16.1 84 84 Calm 30.21 1023 2 3 0.00 0.00
8:00 am 08:00 Hazy 66 18.9 61 16.1 84 84 Calm 30.19 1022 2 3 0.00 0.00
8:53 am 08:53 Hazy 71 21.7 64 17.8 79 79 Calm 30.21 1023 5 8 0.00 0.00
9:53 am 09:53 Hazy 74 23.3 65 18.3 74 74 SSE 3 6 30.21 1023 6 10 0.00 0.00
10:53 am 10:53 Sunny 77 25 66 18.9 69 69 SSE 3 6 30.21 1023 10 16 0.00 0.00
11:53 am 11:53 Partly Cloudy 79 26.1 64 17.8 60 60 SSE 6 9 30.20 1023 10 16 0.00 0.00
12:53 pm 12:53 Sunny 81 27.2 62 16.7 53 53 SE 8 13 30.19 1022 10 16 0.00 0.00
1:53 pm 13:53 Mostly Sunny 82 27.8 62 16.7 51 51 SE 7 11 30.17 1022 10 16 0.00 0.00
2:53 pm 14:53 Mostly Sunny 83 28.3 62 16.7 49 49 ESE 9 15 30.15 1021 10 16 0.00 0.00
3:53 pm 15:53 Sunny 83 28.3 61 16.1 48 48 ESE 10 17 30.14 1021 10 16 0.00 0.00
4:53 pm 16:53 Sunny 82 27.8 62 16.7 51 51 SSE 8 13 30.14 1021 10 16 0.00 0.00
5:53 pm 17:53 Sunny 82 27.8 58 14.4 44 44 S 8 13 30.12 1020 10 16 0.00 0.00
6:53 pm 18:53 Sunny 81 27.2 61 16.1 51 51 SSE 8 13 30.10 1019 10 16 0.00 0.00
7:53 pm 19:53 Sunny 78 25.6 62 16.7 58 58 SE 5 7 30.09 1019 10 16 0.00 0.00
8:53 pm 20:53 Sunny 73 22.8 63 17.2 71 71 SE 6 9 30.08 1019 10 16 0.00 0.00
9:53 pm 21:53 Clear 71 21.7 63 17.2 76 76 SE 6 9 30.09 1019 10 16 0.00 0.00
10:53 pm 22:53 Clear 70 21.1 63 17.2 79 79 SE 7 11 30.09 1019 10 16 0.00 0.00
11:53 pm 23:53 Clear 70 21.1 62 16.7 76 76 SE 6 9 30.10 1019 10 16 0.00 0.00

Powered by AerisWeather